Вернуться в каталог

STARLINK-36865

АктивенСвязьVLEO
NORAD 67930·PAYLOAD·🇺🇸 United States

Запущен Feb 22, 2026 с Vandenberg Space Force Base

Loading…

Ближайшие Пролёты (ближайшие 24 часа)

TLE

СвежийSource: CelesTrak SupGP

Эпоха: Sep 15, 2026, 02:56 UTC

1 67930C 26036AC  26258.12270833 -.00023852  00000+0 -86409-3 0  2580
2 67930  43.0007 255.1411 0001187 264.4369 208.4830 15.27584453    11

Отслеживайте STARLINK-36865 в реальном времени с AllMySat

Download on the App Store